OK,928,8,744,928,2014-10-01T01:40:00,0,28072071,210067
OK,928,8,744,928,2014-10-01T01:45:00,0,28072514,210067
OK,928,8,744,928,2014-10-01T01:50:00,0,28072963,210067
OK,928,8,744,928,2014-10-01T01:55:00,0,28073410,210067
OK,928,8,744,928,2014-10-01T02:05:00,0,28074176,210067
OK,928,8,744,928,2014-10-01T02:10:00,0,28074625,210067
OK,928,8,744,928,2014-10-01T02:15:00,0,28075065,210067
OK,928,8,744,928,2014-10-01T02:20:00,0,28075514,210067
OK,928,8,744,928,2014-10-01T02:25:00,0,28075963,210067
OK,928,8,744,928,2014-10-01T02:30:00,0,28076346,210067
OK,928,8,744,928,2014-10-01T02:35:00,0,28076795,210067
OK,928,8,744,928,2014-10-01T02:40:00,0,28077244,210067
OK,928,8,744,928,2014-10-01T02:45:00,0,28077693,210067
OK,928,8,744,928,2014-10-01T02:50:00,0,28078096,210067
OK,928,8,744,928,2014-10-01T02:55:00,0,28078545,210067
OK,928,8,744,928,2014-10-01T03:00:00,0,28078990,210067
OK,928,8,744,928,2014-10-01T03:05:00,0,28079438,210067
OK,928,8,744,928,2014-10-01T03:10:00,0,28079881,210067
OK,928,8,744,928,2014-10-01T03:20:00,0,28080664,210067
OK,928,8,744,928,2014-10-01T03:25:00,0,28081113,210067
OK,928,8,744,928,2014-10-01T03:30:00,0,28081561,210067
OK,928,8,744,928,2014-10-01T03:35:00,0,28082009,210067
OK,928,8,744,928,2014-10-01T03:40:00,0,28082458,210067
OK,928,8,744,928,2014-10-01T03:45:00,0,28082891,210067
OK,928,8,744,928,2014-10-01T03:50:00,0,28083323,210067
OK,928,8,744,928,2014-10-01T03:55:00,0,28083772,210067
OK,928,8,744,928,2014-10-01T04:00:00,0,28084221,210067
OK,928,8,744,928,2014-10-01T04:05:00,0,28084662,210067
OK,928,8,744,928,2014-10-01T04:10:00,0,28085087,210067
OK,928,8,744,928,2014-10-01T04:15:00,0,28085536,210067
OK,1748,4,744,1748,2014-10-01T04:20:00,2,28085981,210067
OK,1748,4,744,1748,2014-10-01T04:25:00,0,28086430,210067
OK,1748,4,744,1748,2014-10-01T04:30:00,0,28086872,210067
OK,1748,4,744,1748,2014-10-01T04:35:00,0,28087321,210067
OK,1748,4,744,1748,2014-10-01T04:40:00,0,28087766,210067
OK,1748,4,744,1748,2014-10-01T04:45:00,0,28088215,210067
OK,1748,4,744,1748,2014-10-01T04:50:00,0,28088639,210067
OK,1748,4,744,1748,2014-10-01T04:55:00,0,28089088,210067
OK,1748,4,744,1748,2014-10-01T05:00:00,0,28089518,210067
OK,1748,4,744,1748,2014-10-01T05:05:00,0,28089967,210067
OK,1748,4,744,1748,2014-10-01T05:10:00,0,28090416,210067
OK,1748,4,744,1748,2014-10-01T05:15:00,0,28090760,210067
OK,1748,4,744,1748,2014-10-01T05:20:00,0,28091209,210067
OK,1748,4,744,1748,2014-10-01T05:25:00,0,28091658,210067
OK,1748,4,744,1748,2014-10-01T05:30:00,0,28092075,210067
OK,1748,4,744,1748,2014-10-01T05:35:00,0,28092524,210067
OK,1748,4,744,1748,2014-10-01T05:40:00,0,28092968,210067
OK,1748,4,744,1748,2014-10-01T05:45:00,0,28093409,210067
OK,1748,4,744,1748,2014-10-01T05:50:00,0,28093840,210067
OK,1748,4,744,1748,2014-10-01T05:55:00,0,28094288,210067
OK,1748,4,744,1748,2014-10-01T06:00:00,0,28094700,210067
OK,1748,4,744,1748,2014-10-01T06:05:00,0,28095145,210067
OK,1748,4,744,1748,2014-10-01T06:10:00,0,28095592,210067
OK,1748,4,744,1748,2014-10-01T06:15:00,0,28096041,210067
OK,1748,4,744,1748,2014-10-01T06:20:00,0,28096454,210067
OK,1748,4,744,1748,2014-10-01T06:25:00,0,28096903,210067
OK,1748,4,744,1748,2014-10-01T06:30:00,0,28097337,210067
OK,1748,4,744,1748,2014-10-01T06:35:00,0,28097786,210067
OK,1748,4,744,1748,2014-10-01T06:40:00,0,28098235,210067
OK,1748,4,744,1748,2014-10-01T06:45:00,0,28098672,210067
OK,1981,4,744,1981,2014-10-01T06:50:00,1,28099116,210067
OK,2249,3,744,2249,2014-10-01T07:00:00,1,28099907,210067
OK,2308,3,744,2308,2014-10-01T07:10:00,1,28100663,210067
OK,2308,3,744,2308,2014-10-01T07:20:00,0,28101483,210067
OK,2308,3,744,2308,2014-10-01T07:25:00,0,28101932,210067
OK,2308,3,744,2308,2014-10-01T07:30:00,0,28102368,210067
OK,2308,3,744,2308,2014-10-01T07:35:00,0,28102817,210067
OK,2308,3,744,2308,2014-10-01T07:40:00,0,28103244,210067
OK,2308,3,744,2308,2014-10-01T07:45:00,0,28103691,210067
OK,2308,3,744,2308,2014-10-01T07:50:00,0,28104136,210067
OK,2308,3,744,2308,2014-10-01T07:55:00,0,28104581,210067
OK,2308,3,744,2308,2014-10-01T08:00:00,0,28105022,210067
OK,2308,3,744,2308,2014-10-01T08:05:00,0,28105467,210067
OK,2308,3,744,2308,2014-10-01T08:10:00,0,28105907,210067
OK,2308,3,744,2308,2014-10-01T08:15:00,0,28106356,210067
OK,2308,3,744,2308,2014-10-01T08:20:00,0,28106793,210067
OK,2308,3,744,2308,2014-10-01T08:30:00,0,28107631,210067
OK,2308,3,744,2308,2014-10-01T08:35:00,0,28108080,210067
OK,2308,3,744,2308,2014-10-01T08:40:00,0,28108519,210067
OK,2308,3,744,2308,2014-10-01T08:45:00,0,28108968,210067
OK,2308,3,744,2308,2014-10-01T08:50:00,0,28109396,210067
OK,1850,4,744,1850,2014-10-01T09:00:00,2,28110188,210067
OK,1850,4,744,1850,2014-10-01T09:05:00,2,28110637,210067
OK,1833,4,744,1833,2014-10-01T09:10:00,0,28111060,210067
OK,1833,4,744,1833,2014-10-01T09:15:00,0,28111509,210067
OK,1833,4,744,1833,2014-10-01T09:20:00,0,28111938,210067
OK,1833,4,744,1833,2014-10-01T09:30:00,0,28112728,210067
OK,1833,4,744,1833,2014-10-01T09:35:00,0,28113177,210067
OK,1833,4,744,1833,2014-10-01T09:40:00,0,28113601,210067
OK,1833,4,744,1833,2014-10-01T09:45:00,0,28114050,210067
OK,1833,4,744,1833,2014-10-01T09:50:00,0,28114482,210067
OK,1833,4,744,1833,2014-10-01T10:00:00,0,28115285,210067
OK,1833,4,744,1833,2014-10-01T10:05:00,0,28115734,210067
OK,1833,4,744,1833,2014-10-01T10:10:00,0,28116146,210067
OK,1833,4,744,1833,2014-10-01T10:15:00,0,28116595,210067
OK,1833,4,744,1833,2014-10-01T10:20:00,0,28117003,210067
OK,1833,4,744,1833,2014-10-01T10:25:00,0,28117452,210067
OK,1833,4,744,1833,2014-10-01T10:30:00,0,28117877,210067
OK,1833,4,744,1833,2014-10-01T10:35:00,0,28118326,210067
OK,1118,7,744,1118,2014-10-01T10:40:00,4,28118771,210067
OK,1945,4,744,1945,2014-10-01T10:45:00,3,28119218,210067
OK,2142,3,744,2142,2014-10-01T10:50:00,1,28119662,210067
OK,2142,3,744,2142,2014-10-01T10:55:00,1,28120110,210067
OK,2142,3,744,2142,2014-10-01T11:00:00,0,28120558,210067
OK,2019,4,744,2019,2014-10-01T11:10:00,1,28121390,210067
OK,2003,4,744,2003,2014-10-01T11:15:00,2,28121839,210067
OK,1987,4,744,1987,2014-10-01T11:20:00,1,28122277,210067
OK,918,8,744,918,2014-10-01T11:25:00,1,28122726,210067
OK,918,8,744,918,2014-10-01T11:30:00,1,28123167,210067
OK,918,8,744,918,2014-10-01T11:35:00,0,28123616,210067
OK,918,8,744,918,2014-10-01T11:40:00,0,28124048,210067
OK,918,8,744,918,2014-10-01T11:45:00,0,28124497,210067
OK,918,8,744,918,2014-10-01T11:50:00,0,28124899,210067
OK,1169,6,744,1169,2014-10-01T11:55:00,1,28125348,210067
OK,1169,6,744,1169,2014-10-01T12:00:00,0,28125777,210067
OK,1169,6,744,1169,2014-10-01T12:10:00,0,28126578,210067
OK,1169,6,744,1169,2014-10-01T12:15:00,0,28127027,210067
OK,1169,6,744,1169,2014-10-01T12:20:00,0,28127476,210067
OK,1169,6,744,1169,2014-10-01T12:25:00,0,28127925,210067
OK,843,9,744,843,2014-10-01T12:30:00,1,28128353,210067
OK,843,9,744,843,2014-10-01T12:35:00,0,28128802,210067
OK,843,9,744,843,2014-10-01T12:40:00,0,28129237,210067
OK,843,9,744,843,2014-10-01T12:45:00,0,28129686,210067
OK,843,9,744,843,2014-10-01T12:50:00,0,28130120,210067
OK,843,9,744,843,2014-10-01T12:55:00,0,28130569,210067
OK,843,9,744,843,2014-10-01T13:00:00,0,28130997,210067
OK,794,10,744,794,2014-10-01T13:05:00,2,28131446,210067
OK,794,10,744,794,2014-10-01T13:10:00,2,28131883,210067
OK,794,10,744,794,2014-10-01T13:15:00,0,28132332,210067
OK,794,10,744,794,2014-10-01T13:20:00,0,28132770,210067
OK,794,10,744,794,2014-10-01T13:25:00,0,28133217,210067
OK,794,10,744,794,2014-10-01T13:30:00,0,28133655,210067
OK,1160,7,744,1160,2014-10-01T13:35:00,1,28134104,210067
OK,1160,7,744,1160,2014-10-01T13:40:00,0,28134543,210067
OK,1160,7,744,1160,2014-10-01T13:45:00,0,28134991,210067
OK,1160,7,744,1160,2014-10-01T13:50:00,0,28135411,210067
OK,514,15,744,514,2014-10-01T13:55:00,2,28135860,210067
OK,514,15,744,514,2014-10-01T14:00:00,2,28136297,210067
OK,514,15,744,514,2014-10-01T14:05:00,0,28136746,210067
OK,514,15,744,514,2014-10-01T14:10:00,0,28137186,210067
OK,514,15,744,514,2014-10-01T14:15:00,0,28137635,210067
OK,514,15,744,514,2014-10-01T14:20:00,0,28138069,210067
OK,514,15,744,514,2014-10-01T14:25:00,0,28138518,210067
OK,514,15,744,514,2014-10-01T14:30:00,0,28138946,210067
OK,514,15,744,514,2014-10-01T14:40:00,0,28139806,210067
OK,514,15,744,514,2014-10-01T14:45:00,0,28140255,210067
OK,514,15,744,514,2014-10-01T14:50:00,0,28140697,210067
OK,514,15,744,514,2014-10-01T14:55:00,0,28141145,210067
OK,514,15,744,514,2014-10-01T15:00:00,0,28141572,210067
OK,514,15,744,514,2014-10-01T15:05:00,0,28142021,210067
OK,514,15,744,514,2014-10-01T15:10:00,0,28142449,210067
OK,514,15,744,514,2014-10-01T15:15:00,0,28142898,210067
OK,514,15,744,514,2014-10-01T15:20:00,0,28143325,210067
OK,514,15,744,514,2014-10-01T15:25:00,0,28143774,210067
OK,514,15,744,514,2014-10-01T15:30:00,0,28144222,210067
OK,514,15,744,514,2014-10-01T15:35:00,0,28144671,210067
OK,514,15,744,514,2014-10-01T15:45:00,0,28145506,210067
OK,514,15,744,514,2014-10-01T15:50:00,0,28145955,210067
OK,514,15,744,514,2014-10-01T15:55:00,0,28146404,210067
OK,514,15,744,514,2014-10-01T16:00:00,0,28146853,210067
OK,514,15,744,514,2014-10-01T16:05:00,0,28147261,210067
OK,488,16,744,488,2014-10-01T16:10:00,1,28147705,210067
OK,488,16,744,488,2014-10-01T16:20:00,0,28148555,210067
OK,488,16,744,488,2014-10-01T16:25:00,0,28149004,210067
OK,488,16,744,488,2014-10-01T16:30:00,0,28149443,210067
OK,488,16,744,488,2014-10-01T16:35:00,0,28149892,210067
OK,488,16,744,488,2014-10-01T16:40:00,0,28150318,210067
OK,488,16,744,488,2014-10-01T16:45:00,0,28150767,210067
OK,488,16,744,488,2014-10-01T16:50:00,0,28151185,210067
OK,488,16,744,488,2014-10-01T16:55:00,0,28151634,210067
OK,488,16,744,488,2014-10-01T17:05:00,0,28152083,210067
OK,488,16,744,488,2014-10-01T17:10:00,0,28152532,210067
OK,488,16,744,488,2014-10-01T17:15:00,0,28152978,210067
OK,488,16,744,488,2014-10-01T17:20:00,0,28153425,210067
OK,488,16,744,488,2014-10-01T17:25:00,0,28153874,210067
OK,488,16,744,488,2014-10-01T17:30:00,0,28154284,210067
OK,224,36,744,224,2014-10-01T17:35:00,2,28154733,210067
OK,272,30,744,272,2014-10-01T17:40:00,0,28155175,210067
OK,272,30,744,272,2014-10-01T17:45:00,0,28155623,210067
OK,272,30,744,272,2014-10-01T17:50:00,0,28156041,210067
OK,272,30,744,272,2014-10-01T17:55:00,0,28156490,210067
OK,272,30,744,272,2014-10-01T18:00:00,0,28156938,210067
OK,272,30,744,272,2014-10-01T18:05:00,0,28157377,210067
OK,272,30,744,272,2014-10-01T18:10:00,0,28157806,210067
OK,272,30,744,272,2014-10-01T18:15:00,0,28158255,210067
OK,272,30,744,272,2014-10-01T18:20:00,0,28158699,210067
OK,272,30,744,272,2014-10-01T18:25:00,0,28159144,210067
OK,272,30,744,272,2014-10-01T18:35:00,0,28159926,210067
OK,272,30,744,272,2014-10-01T18:40:00,0,28160375,210067
OK,272,30,744,272,2014-10-01T18:45:00,0,28160824,210067
OK,272,30,744,272,2014-10-01T18:50:00,0,28161262,210067
OK,272,30,744,272,2014-10-01T18:55:00,0,28161711,210067
OK,272,30,744,272,2014-10-01T19:00:00,0,28162128,210067
OK,272,30,744,272,2014-10-01T19:05:00,0,28162577,210067
OK,272,30,744,272,2014-10-01T19:10:00,0,28162971,210067
OK,272,30,744,272,2014-10-01T19:15:00,0,28163410,210067
OK,272,30,744,272,2014-10-01T19:20:00,0,28163858,210067
OK,272,30,744,272,2014-10-01T19:25:00,0,28164307,210067
OK,272,30,744,272,2014-10-01T19:30:00,0,28164738,210067
OK,272,30,744,272,2014-10-01T19:35:00,0,28165187,210067
OK,272,30,744,272,2014-10-01T19:40:00,0,28165612,210067
OK,272,30,744,272,2014-10-01T19:45:00,0,28166060,210067
OK,272,30,744,272,2014-10-01T19:55:00,0,28166863,210067
OK,361,22,744,361,2014-10-01T20:00:00,1,28167311,210067
OK,361,22,744,361,2014-10-01T20:05:00,0,28168174,210067
OK,361,22,744,361,2014-10-01T20:15:00,0,28168622,210067
OK,361,22,744,361,2014-10-01T20:20:00,0,28169068,210067
OK,361,22,744,361,2014-10-01T20:25:00,0,28169517,210067
OK,361,22,744,361,2014-10-01T20:35:00,0,28170389,210067
OK,361,22,744,361,2014-10-01T20:40:00,0,28170836,210067
OK,361,22,744,361,2014-10-01T20:45:00,0,28171283,210067
OK,361,22,744,361,2014-10-01T20:50:00,0,28172166,210067
OK,361,22,744,361,2014-10-01T20:55:00,0,28172613,210067
OK,361,22,744,361,2014-10-01T21:00:00,0,28173058,210067
OK,361,22,744,361,2014-10-01T21:05:00,0,28173507,210067
OK,361,22,744,361,2014-10-01T21:10:00,0,28173950,210067
OK,361,22,744,361,2014-10-01T21:20:00,0,28174397,210067
OK,361,22,744,361,2014-10-01T21:25:00,0,28175219,210067
OK,361,22,744,361,2014-10-01T21:30:00,0,28175668,210067
OK,361,22,744,361,2014-10-01T21:40:00,0,28176117,210067
OK,361,22,744,361,2014-10-01T21:45:00,0,28176566,210067
OK,361,22,744,361,2014-10-01T21:50:00,0,28177364,210067
OK,361,22,744,361,2014-10-01T21:55:00,0,28177808,210067
OK,361,22,744,361,2014-10-01T22:05:00,0,28178257,210067
OK,361,22,744,361,2014-10-01T22:10:00,0,28178706,210067
OK,361,22,744,361,2014-10-01T22:15:00,0,28179153,210067
OK,361,22,744,361,2014-10-01T22:20:00,0,28179587,210067
OK,361,22,744,361,2014-10-01T22:25:00,0,28180030,210067
OK,361,22,744,361,2014-10-01T22:30:00,0,28180875,210067
OK,361,22,744,361,2014-10-01T22:35:00,0,28181300,210067
OK,361,22,744,361,2014-10-01T22:40:00,0,28181747,210067
OK,361,22,744,361,2014-10-01T22:45:00,0,28182194,210067
OK,361,22,744,361,2014-10-01T22:55:00,0,28182643,210067
OK,361,22,744,361,2014-10-01T23:00:00,0,28183493,210067
OK,361,22,744,361,2014-10-01T23:05:00,0,28183938,210067
OK,361,22,744,361,2014-10-01T23:10:00,0,28184387,210067
OK,361,22,744,361,2014-10-01T23:15:00,0,28184822,210067
OK,361,22,744,361,2014-10-01T23:20:00,0,28185270,210067
OK,361,22,744,361,2014-10-01T23:25:00,0,28185701,210067
OK,361,22,744,361,2014-10-01T23:30:00,0,28186093,210067
OK,361,22,744,361,2014-10-01T23:35:00,0,28186542,210067
OK,361,22,744,361,2014-10-01T23:40:00,0,28186940,210067
OK,361,22,744,361,2014-10-01T23:45:00,0,28187382,210067
OK,361,22,744,361,2014-10-01T23:50:00,0,28187831,210067
OK,361,22,744,361,2014-10-01T23:55:00,0,28188272,210067
OK,361,22,744,361,2014-10-02T00:00:00,0,28188708,210067
OK,361,22,744,361,2014-10-02T00:10:00,0,28189157,210067
OK,361,22,744,361,2014-10-02T00:15:00,0,28189606,210067
OK,361,22,744,361,2014-10-02T00:20:00,0,28190028,210067
OK,361,22,744,361,2014-10-02T00:30:00,0,28190830,210067
OK,361,22,744,361,2014-10-02T00:35:00,0,28191279,210067
OK,361,22,744,361,2014-10-02T00:45:00,0,28192034,210067
OK,361,22,744,361,2014-10-02T00:50:00,0,28192483,210067
OK,361,22,744,361,2014-10-02T00:55:00,0,28192916,210067
OK,361,22,744,361,2014-10-02T01:00:00,0,28193727,210067
OK,361,22,744,361,2014-10-02T01:10:00,0,28194176,210067
OK,361,22,744,361,2014-10-02T01:15:00,0,28194625,210067
OK,361,22,744,361,2014-10-02T01:25:00,0,28195310,210067
OK,361,22,744,361,2014-10-02T01:30:00,0,28195759,210067
OK,361,22,744,361,2014-10-02T01:35:00,0,28196208,210067
OK,361,22,744,361,2014-10-02T01:40:00,0,28196492,210067
OK,361,22,744,361,2014-10-02T01:45:00,0,28196941,210067
OK,361,22,744,361,2014-10-02T01:50:00,0,28197364,210067
OK,361,22,744,361,2014-10-02T01:55:00,0,28197813,210067
OK,361,22,744,361,2014-10-02T02:00:00,0,28198261,210067
OK,361,22,744,361,2014-10-02T02:05:00,0,28198709,210067
OK,361,22,744,361,2014-10-02T02:10:00,0,28199158,210067
OK,361,22,744,361,2014-10-02T02:15:00,0,28199530,210067
OK,361,22,744,361,2014-10-02T02:20:00,0,28199972,210067
OK,361,22,744,361,2014-10-02T02:25:00,0,28200414,210067
OK,361,22,744,361,2014-10-02T02:30:00,0,28200857,210067
OK,361,22,744,361,2014-10-02T02:45:00,0,28201737,210067
OK,361,22,744,361,2014-10-02T02:50:00,0,28202186,210067
OK,361,22,744,361,2014-10-02T02:55:00,0,28202635,210067
OK,361,22,744,361,2014-10-02T03:00:00,0,28203077,210067
OK,361,22,744,361,2014-10-02T03:05:00,0,28203525,210067
OK,361,22,744,361,2014-10-02T03:10:00,0,28203960,210067
OK,361,22,744,361,2014-10-02T03:30:00,0,28204409,210067
OK,361,22,744,361,2014-10-02T03:35:00,0,28204858,210067
OK,361,22,744,361,2014-10-02T03:40:00,0,28205307,210067
OK,361,22,744,361,2014-10-02T03:45:00,0,28205735,210067
OK,361,22,744,361,2014-10-02T03:55:00,0,28206565,210067
OK,361,22,744,361,2014-10-02T04:00:00,0,28207014,210067
OK,361,22,744,361,2014-10-02T04:05:00,0,28207463,210067
OK,361,22,744,361,2014-10-02T04:10:00,0,28207882,210067
OK,361,22,744,361,2014-10-02T04:15:00,0,28208331,210067
OK,361,22,744,361,2014-10-02T04:20:00,0,28208758,210067
OK,361,22,744,361,2014-10-02T04:25:00,0,28209207,210067
OK,2193,3,744,2193,2014-10-02T04:30:00,2,28209645,210067
OK,2193,3,744,2193,2014-10-02T04:35:00,0,28210094,210067
OK,2193,3,744,2193,2014-10-02T04:40:00,0,28210517,210067
OK,2193,3,744,2193,2014-10-02T04:45:00,0,28210966,210067
OK,2193,3,744,2193,2014-10-02T04:50:00,0,28211391,210067
OK,2193,3,744,2193,2014-10-02T05:00:00,0,28212213,210067
OK,2193,3,744,2193,2014-10-02T05:05:00,0,28212662,210067
OK,2193,3,744,2193,2014-10-02T05:10:00,0,28213091,210067
OK,2193,3,744,2193,2014-10-02T05:15:00,0,28213540,210067
OK,2193,3,744,2193,2014-10-02T05:20:00,0,28213978,210067
OK,2193,3,744,2193,2014-10-02T05:25:00,0,28214427,210067
OK,2193,3,744,2193,2014-10-02T05:30:00,0,28214840,210067
OK,2193,3,744,2193,2014-10-02T05:35:00,0,28215289,210067
OK,2193,3,744,2193,2014-10-02T05:40:00,0,28215705,210067
OK,2193,3,744,2193,2014-10-02T05:45:00,0,28216154,210067
OK,2193,3,744,2193,2014-10-02T05:50:00,0,28216493,210067
OK,2193,3,744,2193,2014-10-02T05:55:00,0,28216933,210067
OK,2193,3,744,2193,2014-10-02T06:00:00,0,28217380,210067
OK,2193,3,744,2193,2014-10-02T06:05:00,0,28217829,210067
OK,2193,3,744,2193,2014-10-02T06:10:00,0,28218268,210067
OK,2193,3,744,2193,2014-10-02T06:15:00,0,28218717,210067
OK,2193,3,744,2193,2014-10-02T06:20:00,0,28219137,210067
OK,2193,3,744,2193,2014-10-02T06:30:00,0,28219959,210067
OK,2193,3,744,2193,2014-10-02T06:35:00,0,28220408,210067
OK,2193,3,744,2193,2014-10-02T06:40:00,0,28220842,210067
OK,2193,3,744,2193,2014-10-02T06:45:00,0,28221291,210067
OK,2193,3,744,2193,2014-10-02T07:00:00,0,28221958,210067
OK,2193,3,744,2193,2014-10-02T07:05:00,0,28222103,210067
OK,2193,3,744,2193,2014-10-02T07:10:00,0,28222552,210067
OK,2193,3,744,2193,2014-10-02T07:15:00,0,28223001,210067
OK,2193,3,744,2193,2014-10-02T07:20:00,0,28223432,210067
OK,2193,3,744,2193,2014-10-02T07:25:00,0,28223867,210067
OK,2193,3,744,2193,2014-10-02T07:35:00,0,28224670,210067
OK,2193,3,744,2193,2014-10-02T07:40:00,0,28225119,210067
OK,2193,3,744,2193,2014-10-02T07:50:00,0,28225890,210067
OK,2193,3,744,2193,2014-10-02T07:55:00,0,28226339,210067
OK,2193,3,744,2193,2014-10-02T08:00:00,0,28226780,210067
OK,2193,3,744,2193,2014-10-02T08:05:00,0,28227229,210067
OK,2193,3,744,2193,2014-10-02T08:10:00,0,28227644,210067
OK,2193,3,744,2193,2014-10-02T08:20:00,0,28228452,210067
OK,2193,3,744,2193,2014-10-02T08:25:00,0,28228901,210067
OK,2193,3,744,2193,2014-10-02T08:30:00,0,28229311,210067
OK,2193,3,744,2193,2014-10-02T08:40:00,0,28230110,210067
OK,2193,3,744,2193,2014-10-02T08:45:00,0,28230558,210067
OK,2193,3,744,2193,2014-10-02T08:50:00,0,28230925,210067
OK,2193,3,744,2193,2014-10-02T08:55:00,0,28231372,210067
OK,991,8,744,991,2014-10-02T09:00:00,2,28231797,210067
OK,991,8,744,991,2014-10-02T09:15:00,0,28232588,210067
OK,991,8,744,991,2014-10-02T09:20:00,0,28233037,210067
OK,991,8,744,991,2014-10-02T09:25:00,0,28233486,210067
OK,991,8,744,991,2014-10-02T09:30:00,0,28233910,210067
OK,991,8,744,991,2014-10-02T09:40:00,0,28234692,210067
OK,1082,7,744,1082,2014-10-02T09:45:00,1,28235141,210067
OK,1082,7,744,1082,2014-10-02T09:50:00,0,28235568,210067
OK,1082,7,744,1082,2014-10-02T09:55:00,0,28236017,210067
OK,1082,7,744,1082,2014-10-02T10:00:00,0,28236460,210067
OK,1082,7,744,1082,2014-10-02T10:10:00,0,28237309,210067
OK,1028,7,744,1028,2014-10-02T10:15:00,2,28237757,210067
OK,1028,7,744,1028,2014-10-02T10:20:00,2,28238206,210067
OK,1028,7,744,1028,2014-10-02T10:25:00,0,28238653,210067
OK,1028,7,744,1028,2014-10-02T10:30:00,0,28239094,210067
OK,1028,7,744,1028,2014-10-02T10:35:00,0,28239543,210067
OK,1028,7,744,1028,2014-10-02T10:40:00,0,28239973,210067
OK,1028,7,744,1028,2014-10-02T10:45:00,0,28240422,210067
OK,1028,7,744,1028,2014-10-02T10:50:00,0,28240866,210067
OK,1028,7,744,1028,2014-10-02T10:55:00,0,28241315,210067
OK,1028,7,744,1028,2014-10-02T11:00:00,0,28241747,210067
OK,1028,7,744,1028,2014-10-02T11:10:00,0,28242591,210067
OK,1028,7,744,1028,2014-10-02T11:15:00,0,28243040,210067
OK,1512,5,744,1512,2014-10-02T11:20:00,1,28243489,210067
OK,1028,7,744,1028,2014-10-02T11:25:00,0,28243814,210067
OK,1028,7,744,1028,2014-10-02T11:30:00,0,28244252,210067
OK,1002,8,744,1002,2014-10-02T11:35:00,1,28244681,210067
OK,1002,8,744,1002,2014-10-02T11:40:00,0,28245130,210067
OK,1002,8,744,1002,2014-10-02T11:45:00,0,28245579,210067
OK,1002,8,744,1002,2014-10-02T11:50:00,0,28245985,210067
OK,1002,8,744,1002,2014-10-02T11:55:00,0,28246434,210067
OK,1002,8,744,1002,2014-10-02T12:00:00,0,28246871,210067
OK,1002,8,744,1002,2014-10-02T12:05:00,0,28247319,210067
OK,1002,8,744,1002,2014-10-02T12:10:00,0,28247766,210067
OK,1002,8,744,1002,2014-10-02T12:15:00,0,28248196,210067
OK,1002,8,744,1002,2014-10-02T12:20:00,0,28248645,210067
OK,1002,8,744,1002,2014-10-02T12:25:00,0,28249092,210067
OK,1002,8,744,1002,2014-10-02T12:30:00,0,28249520,210067
OK,1002,8,744,1002,2014-10-02T12:35:00,0,28249960,210067
OK,1002,8,744,1002,2014-10-02T12:45:00,0,28251112,210067
OK,1002,8,744,1002,2014-10-02T13:20:00,0,28251657,210067
OK,1002,8,744,1002,2014-10-02T13:30:00,0,28252105,210067
OK,1002,8,744,1002,2014-10-02T13:35:00,0,28252241,210067
OK,1002,8,744,1002,2014-10-02T13:40:00,0,28253102,210067
OK,1002,8,744,1002,2014-10-02T13:50:00,0,28253549,210067
OK,1002,8,744,1002,2014-10-02T13:55:00,0,28254275,210067
OK,1002,8,744,1002,2014-10-02T14:10:00,0,28254852,210067
OK,1002,8,744,1002,2014-10-02T14:20:00,0,28255301,210067
OK,1002,8,744,1002,2014-10-02T14:25:00,0,28255748,210067
OK,1369,5,744,1369,2014-10-02T14:30:00,1,28256178,210067
OK,1369,5,744,1369,2014-10-02T14:40:00,0,28257055,210067
OK,1369,5,744,1369,2014-10-02T14:45:00,0,28257504,210067
OK,1369,5,744,1369,2014-10-02T14:50:00,0,28257945,210067
OK,1369,5,744,1369,2014-10-02T14:55:00,0,28258824,210067
OK,1369,5,744,1369,2014-10-02T15:05:00,0,28259272,210067
OK,1369,5,744,1369,2014-10-02T15:10:00,0,28259720,210067
OK,1369,5,744,1369,2014-10-02T15:20:00,0,28260601,210067
OK,1369,5,744,1369,2014-10-02T15:25:00,0,28261424,210067
OK,1369,5,744,1369,2014-10-02T15:35:00,0,28261853,210067
OK,1369,5,744,1369,2014-10-02T15:40:00,0,28262302,210067
OK,1369,5,744,1369,2014-10-02T15:45:00,0,28262748,210067
OK,1369,5,744,1369,2014-10-02T15:50:00,0,28263625,210067
OK,1369,5,744,1369,2014-10-02T15:55:00,0,28264027,210067
OK,1369,5,744,1369,2014-10-02T16:05:00,0,28264476,210067
OK,1369,5,744,1369,2014-10-02T16:10:00,0,28265359,210067
OK,1369,5,744,1369,2014-10-02T16:15:00,0,28265750,210067
OK,1369,5,744,1369,2014-10-02T16:25:00,0,28266199,210067
OK,1369,5,744,1369,2014-10-02T16:30:00,0,28266648,210067
OK,1369,5,744,1369,2014-10-02T16:35:00,0,28267420,210067
OK,1369,5,744,1369,2014-10-02T16:45:00,0,28267869,210067
OK,1369,5,744,1369,2014-10-02T16:55:00,0,28268760,210067
OK,1369,5,744,1369,2014-10-02T17:00:00,0,28269209,210067
OK,1369,5,744,1369,2014-10-02T17:10:00,0,28270093,210067
OK,1369,5,744,1369,2014-10-02T17:20:00,0,28270976,210067
OK,1369,5,744,1369,2014-10-02T17:30:00,0,28271854,210067
OK,1369,5,744,1369,2014-10-02T17:35:00,0,28272736,210067
OK,1369,5,744,1369,2014-10-02T17:45:00,0,28273180,210067
OK,1369,5,744,1369,2014-10-02T17:50:00,0,28273628,210067
OK,1369,5,744,1369,2014-10-02T17:55:00,0,28274074,210067
OK,1369,5,744,1369,2014-10-02T18:00:00,0,28274523,210067
OK,1369,5,744,1369,2014-10-02T18:05:00,0,28274851,210067
OK,1369,5,744,1369,2014-10-02T18:10:00,0,28275732,210067
OK,1369,5,744,1369,2014-10-02T18:15:00,0,28276179,210067
OK,1369,5,744,1369,2014-10-02T18:20:00,0,28276574,210067